Regional Weather Roundup
Issued by NWS Columbia, SC

Home | Current Version | Previous Version | Text Only | Print | Product List | Glossary On
Versions: 1 2 3 4 5 6 7 8 9 10 11 12 13 14 15 16 17 18 19 20 21 22 23 24 25 26 27 28 29 30 31 32 33 34 35 36 37 38 39 40 41 42 43 44 45 46 47 48 49 50
000
ASUS42 KCAE 281610
RWRCAE
REGIONAL WEATHER ROUNDUP
NATIONAL WEATHER SERVICE COLUMBIA SC
1200 PM EDT FRI JUL 28 2017

NOTE: "FAIR" INDICATES FEW OR NO CLOUDS BELOW 12,000 FEET WITH NO
SIGNIFICANT WEATHER AND/OR OBSTRUCTIONS TO VISIBILITY.

NOT ALL STATIONS ARE QUALITY CONTROLLED BY THE NATIONAL
WEATHER SERVICE. USE DATA WITH CAUTION...ESPECIALLY
DEWPOINT OBSERVATIONS.

SCZ001>056-GAZ040-063>065-077-281700-
...UPSTATE SOUTH CAROLINA...

CITY           SKY/WX    TMP DP  RH WIND       PRES   REMARKS
ANDERSON       SUNNY     89  72  56 W9        29.89F HX  96
LIBERTY        MOSUNNY   85  74  68 SW6       29.89F
SPARTANBURG    CLOUDY    79  72  78 CALM      29.89S
CLEMSON        SUNNY     90  73  57 W13       29.90F HX  98
GREENVILLE     MOSUNNY   90  71  53 W13       29.90F HX  96
GREENWOOD      SUNNY     88  72  58 W10G21    29.90F
GREER          MOSUNNY   85  73  67 SW6       29.88F
ROCK HILL      MOSUNNY   86  72  62 SW10      29.88F
CHESTER        CLOUDY    82  70  65 S3        29.89F
LAURENS        CLOUDY    86  73  66 W5        29.89F


...CENTRAL SOUTH CAROLINA...

CITY           SKY/WX    TMP DP  RH WIND       PRES   REMARKS
COLUMBIA APT   MOSUNNY   91  74  57 VRB7      29.86F HX 100
COLUMBIA OWENS MOSUNNY   88  72  58 CALM      29.88F
MCENTIRE ANGB  PTSUNNY   88  74  64 SW6       29.88F HX  97
ORANGEBURG     MOSUNNY   87  75  67 W9        29.89S HX  96
SUMTER SHAW    PTSUNNY   87  74  65 SW12      29.86S HX  96
NEWBERRY       CLOUDY    86  75  70 SW9       29.91F HX  95
AIKEN          FAIR      88  73  62 SW10      29.93F HX  96
BARNWELL       FAIR      91  77  62 W7G15     29.89F HX 105
MANNING        PTSUNNY   86  77  74 NW7       29.88F HX  97
CAMDEN         FAIR      88  73  62 S7        29.88F HX  96
LANCASTER      MOSUNNY   84  75  74 SW7       29.88F
WINNSBORO      CLOUDY    86  72  62 SW5       29.89S


...EASTERN AND COASTAL SOUTH CAROLINA...

CITY           SKY/WX    TMP DP  RH WIND       PRES   REMARKS
MYRTLE BEACH   PTSUNNY   86  73  66 SW5       29.88F
N MYRTLE BCH   CLOUDY    83  76  79 S7        29.87F
CONWAY         FAIR      84  73  70 SW5       29.87F
MARION         FAIR      84  72  65 SW5       29.87F
HARTSVILLE     FAIR      79  73  83 SW3       29.88S
FLORENCE       CLOUDY    84  76  76 SW8       29.88S
DARLINGTON     CLOUDY    84  77  79 SW9       29.87F
CHARLESTON APT PTSUNNY   86  73  65 NW8       29.88F
MOUNT PLEASANT FAIR      88  75  66 CALM      29.88F HX  97
BEAUFORT       MOSUNNY   89  76  65 W8        29.89F HX 100


...EASTERN GEORGIA...

CITY           SKY/WX    TMP DP  RH WIND       PRES   REMARKS
AUGUSTA BUSH F MOSUNNY   92  76  59 VRB5      29.88F HX 104
AUGUSTA DANIEL SUNNY     91  72  53 SW7       29.90F HX  98
THOMSON        SUNNY     89  74  60 NW7       29.95F HAZE    HX  98
WASHINGTON     FAIR     N/A N/A N/A W12       29.90F
CLAXTON        FAIR      91  77  64 SW10      29.91F HX 103
SYLVANIA       MOSUNNY   88  78  73 W5        29.91F HX 102
STATESBORO     MOSUNNY   89  71  55 W5G16     29.91S HX  96
SAVANNAH       MOSUNNY   90  75  61 W10       29.90F HX 100


...SOUTHERN NORTH CAROLINA...

CITY           SKY/WX    TMP DP  RH WIND       PRES   REMARKS
CHARLOTTE      CLOUDY    85  75  72 SW6       29.88F
MONROE         CLOUDY    86  71  60 W8        29.87F
ROCKINGHAM     CLOUDY    85  76  73 SW7       29.87S
RUTHERFORDTON  CLOUDY    79  73  80 CALM      29.91S
ASHEVILLE      MOSUNNY   76  71  85 SW3       29.95F

$$



USA.gov is the U.S. government's official web portal to all federal, state and local government web resources and services.